Time,TemperatureF,DewpointF,PressureIn,WindDirection,WindDirectionDegrees,WindSpeedMPH,WindSpeedGustMPH,Humidity,HourlyPrecipIn,Conditions,Clouds,dailyrainin,SoftwareType,DateUTC
2013-01-13 00:03:00,58.0,54.0,29.98,West,259,0.0,2.0,85,0.00,,,0.01,,2013-01-13 05:03:00,
2013-01-13 00:12:00,58.0,54.0,29.98,West,259,0.0,2.0,85,0.00,,,0.01,,2013-01-13 05:12:00,
2013-01-13 00:22:00,59.0,54.0,29.98,West,259,0.0,2.0,83,0.00,,,0.01,,2013-01-13 05:22:00,
2013-01-13 00:32:00,60.0,54.0,29.97,West,259,0.0,1.0,81,0.00,,,0.01,,2013-01-13 05:32:00,
2013-01-13 00:42:00,60.0,54.0,29.97,West,259,0.0,1.0,81,0.00,,,0.01,,2013-01-13 05:42:00,
2013-01-13 00:53:00,60.0,53.0,29.96,SW,232,1.0,2.0,79,0.00,,,0.01,,2013-01-13 05:53:00,
2013-01-13 01:03:00,59.0,54.0,29.97,SW,232,1.0,2.0,82,0.00,,,0.01,,2013-01-13 06:03:00,
2013-01-13 01:12:00,58.0,52.0,29.96,SW,232,0.0,2.0,81,0.00,,,0.01,,2013-01-13 06:12:00,
2013-01-13 01:22:00,58.0,52.0,29.96,SW,232,0.0,2.0,81,0.00,,,0.01,,2013-01-13 06:22:00,
2013-01-13 01:32:00,56.0,52.0,29.95,SW,232,0.0,1.0,86,0.00,,,0.01,,2013-01-13 06:32:00,
2013-01-13 01:42:00,56.0,52.0,29.95,SW,232,0.0,1.0,86,0.00,,,0.01,,2013-01-13 06:42:00,
2013-01-13 01:52:00,55.0,51.0,29.94,SW,232,1.0,1.0,86,0.00,,,0.01,,2013-01-13 06:52:00,
2013-01-13 02:02:00,55.0,51.0,29.95,SW,232,0.0,1.0,86,0.00,,,0.01,,2013-01-13 07:02:00,
2013-01-13 02:12:00,55.0,51.0,29.95,SW,232,0.0,1.0,86,0.00,,,0.01,,2013-01-13 07:12:00,
2013-01-13 02:22:00,55.0,51.0,29.95,SW,232,0.0,1.0,86,0.00,,,0.01,,2013-01-13 07:22:00,
2013-01-13 02:32:00,55.0,51.0,29.95,SW,232,0.0,2.0,87,0.00,,,0.01,,2013-01-13 07:32:00,
2013-01-13 02:42:00,55.0,51.0,29.95,SW,232,0.0,2.0,87,0.00,,,0.01,,2013-01-13 07:42:00,
2013-01-13 02:53:00,54.0,50.0,29.94,WSW,238,1.0,2.0,87,0.00,,,0.01,,2013-01-13 07:53:00,
2013-01-13 03:02:00,55.0,51.0,29.94,WSW,238,0.0,2.0,87,0.00,,,0.01,,2013-01-13 08:02:00,
2013-01-13 03:12:00,55.0,51.0,29.94,WSW,238,0.0,2.0,87,0.00,,,0.01,,2013-01-13 08:12:00,
2013-01-13 03:22:00,54.0,50.0,29.92,WSW,253,0.0,3.0,87,0.00,,,0.01,,2013-01-13 08:22:00,
2013-01-13 03:32:00,54.0,50.0,29.92,WSW,253,1.0,2.0,87,0.00,,,0.01,,2013-01-13 08:32:00,
2013-01-13 03:42:00,54.0,50.0,29.92,WSW,253,1.0,2.0,87,0.00,,,0.01,,2013-01-13 08:42:00,
2013-01-13 03:53:00,54.0,51.0,29.90,WSW,253,0.0,1.0,88,0.00,,,0.01,,2013-01-13 08:53:00,
2013-01-13 04:02:00,53.0,50.0,29.90,WSW,253,0.0,2.0,89,0.00,,,0.01,,2013-01-13 09:02:00,
2013-01-13 04:12:00,54.0,51.0,29.90,WSW,253,0.0,1.0,89,0.00,,,0.01,,2013-01-13 09:12:00,
2013-01-13 04:22:00,54.0,51.0,29.90,WSW,253,0.0,1.0,89,0.00,,,0.01,,2013-01-13 09:22:00,
2013-01-13 04:32:00,54.0,51.0,29.90,WSW,253,0.0,1.0,89,0.00,,,0.01,,2013-01-13 09:32:00,
2013-01-13 04:42:00,54.0,51.0,29.90,WSW,253,0.0,1.0,89,0.00,,,0.01,,2013-01-13 09:42:00,
2013-01-13 04:52:00,53.0,50.0,29.90,WSW,253,0.0,2.0,89,0.00,,,0.01,,2013-01-13 09:52:00,
2013-01-13 05:02:00,53.0,50.0,29.89,WSW,253,0.0,1.0,90,0.00,,,0.01,,2013-01-13 10:02:00,
2013-01-13 05:12:00,53.0,50.0,29.89,WSW,253,0.0,1.0,90,0.00,,,0.01,,2013-01-13 10:12:00,
2013-01-13 05:22:00,53.0,50.0,29.89,WSW,253,0.0,1.0,90,0.00,,,0.01,,2013-01-13 10:22:00,
2013-01-13 05:32:00,53.0,50.0,29.89,WSW,253,0.0,1.0,91,0.00,,,0.01,,2013-01-13 10:32:00,
2013-01-13 05:42:00,53.0,50.0,29.89,WSW,253,0.0,1.0,91,0.00,,,0.01,,2013-01-13 10:42:00,
2013-01-13 05:53:00,53.0,50.0,29.90,WSW,253,0.0,1.0,90,0.00,,,0.01,,2013-01-13 10:53:00,
2013-01-13 06:02:00,52.0,50.0,29.90,WSW,253,0.0,0.0,92,0.00,,,0.01,,2013-01-13 11:02:00,
2013-01-13 06:12:00,52.0,50.0,29.90,WSW,253,0.0,0.0,92,0.00,,,0.01,,2013-01-13 11:12:00,
2013-01-13 06:22:00,53.0,51.0,29.91,WSW,253,0.0,1.0,92,0.00,,,0.00,,2013-01-13 11:22:00,
2013-01-13 06:32:00,53.0,51.0,29.92,WSW,253,0.0,0.0,92,0.00,,,0.00,,2013-01-13 11:32:00,
2013-01-13 06:42:00,53.0,51.0,29.92,WSW,253,0.0,0.0,92,0.00,,,0.00,,2013-01-13 11:42:00,
2013-01-13 06:53:00,52.0,50.0,29.93,WSW,253,0.0,0.0,93,0.00,,,0.00,,2013-01-13 11:53:00,
2013-01-13 07:03:00,52.0,50.0,29.94,WSW,253,0.0,0.0,92,0.00,,,0.00,,2013-01-13 12:03:00,
2013-01-13 07:12:00,52.0,50.0,29.94,WSW,253,0.0,0.0,92,0.00,,,0.00,,2013-01-13 12:12:00,
2013-01-13 07:22:00,51.0,49.0,29.94,WSW,253,0.0,0.0,93,0.00,,,0.00,,2013-01-13 12:22:00,
2013-01-13 07:33:00,51.0,49.0,29.94,WSW,253,0.0,1.0,94,0.00,,,0.00,,2013-01-13 12:33:00,
2013-01-13 07:42:00,51.0,49.0,29.94,WSW,253,0.0,1.0,94,0.00,,,0.00,,2013-01-13 12:42:00,
2013-01-13 07:53:00,52.0,50.0,29.95,WSW,253,0.0,1.0,94,0.00,,,0.00,,2013-01-13 12:53:00,
2013-01-13 08:03:00,54.0,51.0,29.95,West,281,0.0,2.0,91,0.00,,,0.00,,2013-01-13 13:03:00,
2013-01-13 08:12:00,54.0,51.0,29.95,West,281,0.0,2.0,91,0.00,,,0.00,,2013-01-13 13:12:00,
2013-01-13 08:22:00,56.0,52.0,29.95,WNW,294,1.0,3.0,88,0.00,,,0.00,,2013-01-13 13:22:00,
2013-01-13 08:33:00,59.0,54.0,29.96,WNW,285,2.0,5.0,83,0.00,,,0.00,,2013-01-13 13:33:00,
2013-01-13 08:42:00,59.0,54.0,29.96,WNW,285,2.0,5.0,83,0.00,,,0.00,,2013-01-13 13:42:00,
2013-01-13 08:53:00,59.0,53.0,29.96,WNW,283,3.0,6.0,80,0.00,,,0.00,,2013-01-13 13:53:00,
2013-01-13 09:03:00,59.0,53.0,29.96,WNW,283,3.0,6.0,80,0.00,,,0.00,,2013-01-13 14:03:00,
2013-01-13 09:12:00,59.0,53.0,29.96,WNW,283,3.0,6.0,80,0.00,,,0.00,,2013-01-13 14:12:00,
2013-01-13 09:22:00,61.0,53.0,29.98,SW,225,2.0,6.0,76,0.00,,,0.00,,2013-01-13 14:22:00,
2013-01-13 09:33:00,61.0,53.0,29.98,SSE,159,3.0,6.0,75,0.00,,,0.00,,2013-01-13 14:33:00,
2013-01-13 09:43:00,61.0,53.0,29.98,SSE,159,3.0,6.0,75,0.00,,,0.00,,2013-01-13 14:43:00,
2013-01-13 09:53:00,62.0,54.0,29.99,West,270,2.0,6.0,74,0.00,,,0.00,,2013-01-13 14:53:00,
2013-01-13 10:03:00,63.0,55.0,29.98,SW,229,2.0,5.0,74,0.00,,,0.00,,2013-01-13 15:03:00,
2013-01-13 10:12:00,63.0,55.0,29.98,SW,229,2.0,5.0,74,0.00,,,0.00,,2013-01-13 15:12:00,
2013-01-13 10:23:00,64.0,55.0,29.99,WSW,255,2.0,7.0,72,0.00,,,0.00,,2013-01-13 15:23:00,
2013-01-13 10:33:00,64.0,54.0,29.99,SSW,201,3.0,7.0,70,0.00,,,0.00,,2013-01-13 15:33:00,
2013-01-13 10:43:00,64.0,54.0,29.99,SSW,201,3.0,7.0,70,0.00,,,0.00,,2013-01-13 15:43:00,
2013-01-13 10:53:00,65.0,55.0,29.99,West,261,3.0,8.0,69,0.00,,,0.00,,2013-01-13 15:53:00,
2013-01-13 11:03:00,66.0,55.0,29.99,SW,232,5.0,9.0,68,0.00,,,0.00,,2013-01-13 16:03:00,
2013-01-13 11:12:00,66.0,55.0,29.99,SW,232,5.0,9.0,68,0.00,,,0.00,,2013-01-13 16:12:00,
2013-01-13 11:23:00,66.0,55.0,29.98,West,261,5.0,11.0,68,0.00,,,0.00,,2013-01-13 16:23:00,
2013-01-13 11:33:00,66.0,55.0,29.98,West,264,7.0,12.0,68,0.00,,,0.00,,2013-01-13 16:33:00,
2013-01-13 11:43:00,66.0,55.0,29.98,West,264,7.0,12.0,68,0.00,,,0.00,,2013-01-13 16:43:00,
2013-01-13 11:53:00,66.0,55.0,29.98,SSW,198,7.0,13.0,68,0.00,,,0.00,,2013-01-13 16:53:00,
2013-01-13 12:03:00,67.0,56.0,29.97,WSW,239,5.0,12.0,68,0.00,,,0.00,,2013-01-13 17:03:00,
2013-01-13 12:12:00,67.0,56.0,29.97,WSW,239,5.0,12.0,68,0.00,,,0.00,,2013-01-13 17:12:00,
2013-01-13 12:22:00,66.0,55.0,29.96,West,261,5.0,17.0,67,0.00,,,0.00,,2013-01-13 17:22:00,
2013-01-13 12:33:00,67.0,56.0,29.95,SW,226,5.0,15.0,68,0.00,,,0.00,,2013-01-13 17:33:00,
2013-01-13 12:42:00,67.0,56.0,29.95,SW,226,5.0,15.0,68,0.00,,,0.00,,2013-01-13 17:42:00,
2013-01-13 12:53:00,68.0,56.0,29.95,WSW,248,8.0,15.0,66,0.00,,,0.00,,2013-01-13 17:53:00,
2013-01-13 13:03:00,67.0,56.0,29.93,SW,236,4.0,10.0,67,0.00,,,0.00,,2013-01-13 18:03:00,
2013-01-13 13:12:00,67.0,56.0,29.93,SW,236,4.0,10.0,67,0.00,,,0.00,,2013-01-13 18:12:00,
2013-01-13 13:23:00,67.0,56.0,29.93,WSW,238,8.0,15.0,67,0.00,,,0.00,,2013-01-13 18:23:00,
2013-01-13 13:33:00,67.0,55.0,29.91,SSE,151,4.0,9.0,65,0.00,,,0.00,,2013-01-13 18:33:00,
2013-01-13 13:43:00,67.0,55.0,29.91,SSE,151,4.0,9.0,65,0.00,,,0.00,,2013-01-13 18:43:00,
2013-01-13 13:53:00,67.0,55.0,29.90,South,178,4.0,11.0,65,0.00,,,0.00,,2013-01-13 18:53:00,
2013-01-13 14:03:00,67.0,55.0,29.91,West,281,5.0,10.0,66,0.00,,,0.00,,2013-01-13 19:03:00,
2013-01-13 14:12:00,67.0,55.0,29.91,West,281,5.0,10.0,66,0.00,,,0.00,,2013-01-13 19:12:00,
2013-01-13 14:22:00,67.0,56.0,29.92,WSW,257,3.0,7.0,67,0.00,,,0.00,,2013-01-13 19:22:00,
2013-01-13 14:33:00,67.0,55.0,29.91,South,178,3.0,11.0,66,0.00,,,0.00,,2013-01-13 19:33:00,
2013-01-13 14:43:00,67.0,55.0,29.91,South,178,3.0,11.0,66,0.00,,,0.00,,2013-01-13 19:43:00,
2013-01-13 14:53:00,67.0,55.0,29.91,SW,215,2.0,11.0,66,0.00,,,0.00,,2013-01-13 19:53:00,
2013-01-13 15:03:00,67.0,55.0,29.91,West,274,3.0,8.0,66,0.00,,,0.00,,2013-01-13 20:03:00,
2013-01-13 15:12:00,67.0,55.0,29.91,West,274,3.0,8.0,66,0.00,,,0.00,,2013-01-13 20:12:00,
2013-01-13 15:22:00,67.0,55.0,29.91,SW,229,2.0,7.0,66,0.00,,,0.00,,2013-01-13 20:22:00,
2013-01-13 15:33:00,67.0,55.0,29.91,SSW,207,3.0,8.0,66,0.00,,,0.00,,2013-01-13 20:33:00,
2013-01-13 15:43:00,67.0,55.0,29.91,SSW,207,3.0,8.0,66,0.00,,,0.00,,2013-01-13 20:43:00,
2013-01-13 15:53:00,66.0,55.0,29.91,NW,313,3.0,9.0,67,0.00,,,0.00,,2013-01-13 20:53:00,
2013-01-13 16:03:00,66.0,54.0,29.92,SW,223,4.0,9.0,66,0.00,,,0.00,,2013-01-13 21:03:00,
2013-01-13 16:12:00,66.0,54.0,29.92,SW,223,4.0,9.0,66,0.00,,,0.00,,2013-01-13 21:12:00,
2013-01-13 16:23:00,66.0,54.0,29.92,WSW,246,2.0,11.0,66,0.00,,,0.00,,2013-01-13 21:23:00,
2013-01-13 16:33:00,66.0,55.0,29.91,SSW,202,3.0,10.0,67,0.00,,,0.00,,2013-01-13 21:33:00,
2013-01-13 16:43:00,66.0,55.0,29.91,SSW,202,3.0,10.0,67,0.00,,,0.00,,2013-01-13 21:43:00,
2013-01-13 16:53:00,65.0,54.0,29.91,SW,216,3.0,10.0,68,0.00,,,0.00,,2013-01-13 21:53:00,
2013-01-13 17:02:00,65.0,55.0,29.90,SE,136,2.0,7.0,69,0.00,,,0.00,,2013-01-13 22:02:00,
2013-01-13 17:12:00,65.0,55.0,29.90,SE,136,2.0,7.0,69,0.00,,,0.00,,2013-01-13 22:12:00,
2013-01-13 17:22:00,65.0,55.0,29.91,SE,136,2.0,10.0,69,0.00,,,0.00,,2013-01-13 22:22:00,
2013-01-13 17:33:00,65.0,55.0,29.91,WSW,238,3.0,7.0,69,0.00,,,0.00,,2013-01-13 22:33:00,
2013-01-13 17:43:00,65.0,55.0,29.91,WSW,238,3.0,7.0,69,0.00,,,0.00,,2013-01-13 22:43:00,
2013-01-13 17:53:00,64.0,54.0,29.91,WSW,237,1.0,5.0,70,0.00,,,0.00,,2013-01-13 22:53:00,
2013-01-13 18:02:00,64.0,54.0,29.92,SW,219,0.0,6.0,70,0.00,,,0.00,,2013-01-13 23:02:00,
2013-01-13 18:12:00,64.0,54.0,29.92,SW,219,0.0,6.0,70,0.00,,,0.00,,2013-01-13 23:12:00,
2013-01-13 18:23:00,64.0,54.0,29.92,South,181,1.0,5.0,70,0.00,,,0.00,,2013-01-13 23:23:00,
2013-01-13 18:33:00,64.0,54.0,29.92,SE,128,0.0,3.0,70,0.00,,,0.00,,2013-01-13 23:33:00,
2013-01-13 18:42:00,64.0,54.0,29.92,SE,128,0.0,3.0,70,0.00,,,0.00,,2013-01-13 23:42:00,
2013-01-13 18:53:00,64.0,54.0,29.92,WSW,254,2.0,5.0,70,0.00,,,0.00,,2013-01-13 23:53:00,
2013-01-13 19:03:00,64.0,54.0,29.92,SSW,210,0.0,3.0,69,0.00,,,0.00,,2013-01-14 00:03:00,
2013-01-13 19:12:00,64.0,54.0,29.92,SSW,210,0.0,3.0,69,0.00,,,0.00,,2013-01-14 00:12:00,
2013-01-13 19:22:00,63.0,53.0,29.93,West,275,1.0,3.0,71,0.00,,,0.00,,2013-01-14 00:22:00,
2013-01-13 19:33:00,62.0,53.0,29.93,WSW,248,1.0,3.0,73,0.00,,,0.00,,2013-01-14 00:33:00,
2013-01-13 19:43:00,62.0,53.0,29.93,WSW,248,1.0,3.0,73,0.00,,,0.00,,2013-01-14 00:43:00,
2013-01-13 19:53:00,61.0,53.0,29.92,WSW,248,0.0,0.0,76,0.00,,,0.00,,2013-01-14 00:53:00,
2013-01-13 20:03:00,61.0,54.0,29.92,WSW,248,0.0,1.0,77,0.00,,,0.00,,2013-01-14 01:03:00,
2013-01-13 20:12:00,61.0,54.0,29.92,WSW,248,0.0,1.0,77,0.00,,,0.00,,2013-01-14 01:12:00,
2013-01-13 20:22:00,60.0,53.0,29.92,WSW,248,0.0,1.0,78,0.00,,,0.00,,2013-01-14 01:22:00,
2013-01-13 20:32:00,60.0,54.0,29.91,WSW,248,0.0,1.0,80,0.00,,,0.00,,2013-01-14 01:32:00,
2013-01-13 20:42:00,60.0,54.0,29.91,WSW,248,0.0,1.0,80,0.00,,,0.00,,2013-01-14 01:42:00,
2013-01-13 20:53:00,59.0,53.0,29.91,WSW,248,0.0,0.0,80,0.00,,,0.00,,2013-01-14 01:53:00,
2013-01-13 21:03:00,59.0,54.0,29.93,WNW,290,1.0,3.0,84,0.00,,,0.00,,2013-01-14 02:03:00,
2013-01-13 21:12:00,59.0,55.0,29.93,WNW,300,0.0,3.0,88,0.01,,,0.01,,2013-01-14 02:12:00,
2013-01-13 21:22:00,59.0,55.0,29.93,WNW,300,0.0,3.0,88,0.01,,,0.01,,2013-01-14 02:22:00,
2013-01-13 21:33:00,58.0,55.0,29.93,NW,306,0.0,2.0,91,0.03,,,0.03,,2013-01-14 02:33:00,
2013-01-13 21:42:00,58.0,55.0,29.93,NW,306,0.0,2.0,91,0.03,,,0.03,,2013-01-14 02:42:00,
2013-01-13 21:53:00,57.0,55.0,29.93,NW,306,0.0,1.0,93,0.04,,,0.04,,2013-01-14 02:53:00,
2013-01-13 22:03:00,57.0,55.0,29.94,NW,306,0.0,2.0,94,0.04,,,0.05,,2013-01-14 03:03:00,
2013-01-13 22:12:00,57.0,55.0,29.94,NW,306,0.0,2.0,94,0.04,,,0.05,,2013-01-14 03:12:00,
2013-01-13 22:22:00,56.0,54.0,29.93,NW,306,0.0,0.0,94,0.06,,,0.07,,2013-01-14 03:22:00,
2013-01-13 22:32:00,56.0,55.0,29.93,NW,309,0.0,1.0,95,0.05,,,0.08,,2013-01-14 03:32:00,
2013-01-13 22:42:00,56.0,55.0,29.93,NW,309,0.0,1.0,95,0.05,,,0.08,,2013-01-14 03:42:00,
2013-01-13 22:53:00,56.0,55.0,29.92,NNW,348,0.0,0.0,95,0.05,,,0.09,,2013-01-14 03:53:00,
2013-01-13 23:02:00,56.0,55.0,29.93,NNW,348,0.0,1.0,96,0.05,,,0.10,,2013-01-14 04:02:00,
2013-01-13 23:12:00,56.0,55.0,29.93,NNW,348,0.0,1.0,96,0.05,,,0.10,,2013-01-14 04:12:00,
2013-01-13 23:22:00,56.0,55.0,29.93,NNW,348,0.0,0.0,96,0.05,,,0.11,,2013-01-14 04:22:00,
2013-01-13 23:32:00,56.0,55.0,29.94,SW,215,0.0,1.0,96,0.04,,,0.12,,2013-01-14 04:32:00,
2013-01-13 23:42:00,56.0,55.0,29.94,SW,215,0.0,1.0,96,0.04,,,0.12,,2013-01-14 04:42:00,
2013-01-13 23:52:00,56.0,55.0,29.94,WSW,257,2.0,4.0,96,0.04,,,0.13,,2013-01-14 04:52:00,